EST,Max TemperatureF,Mean TemperatureF,Min TemperatureF,Max Dew PointF,MeanDew PointF,Min DewpointF,Max Humidity, Mean Humidity, Min Humidity, Max Sea Level PressureIn, Mean Sea Level PressureIn, Min Sea Level PressureIn, Max VisibilityMiles, Mean VisibilityMiles, Min VisibilityMiles, Max Wind SpeedMPH, Mean Wind SpeedMPH, Max Gust SpeedMPH,PrecipitationIn, CloudCover, Events, WindDirDegrees
2010-11-1,50,40,32,29,25,21,67,56,40,30.34,30.21,30.06,10,10,10,17,10,25,0.00,4,,298
2010-11-2,48,40,30,30,26,22,81,59,39,30.41,30.36,30.32,10,10,10,10,7,,0.00,3,,324
2010-11-3,48,36,26,31,27,23,88,73,46,30.35,30.19,30.04,10,10,10,8,4,,0.00,2,,272
2010-11-4,50,40,29,48,41,27,100,93,86,30.03,29.75,29.48,10,5,1,21,6,38,1.09,7,Rain,34
2010-11-5,59,52,43,56,46,36,100,91,71,29.81,29.46,29.34,10,4,0,14,5,20,0.27,7,Fog-Rain,278
2010-11-6,46,42,37,37,34,31,81,72,58,30.24,30.08,29.86,10,10,10,12,6,,0.00,7,,321
2010-11-7,44,38,33,32,31,30,89,72,59,30.27,30.08,29.70,10,10,8,17,10,25,0.07,7,Rain,330
2010-11-8,48,43,38,45,41,36,93,86,72,29.72,29.54,29.35,10,7,1,24,16,37,1.24,7,Rain,16
2010-11-9,53,49,45,50,46,42,94,87,76,29.93,29.82,29.70,10,7,2,18,12,25,0.07,8,Rain,3
2010-11-10,49,45,41,42,32,23,90,63,41,30.29,30.10,29.94,10,8,2,18,13,29,0.03,6,Rain,18
2010-11-11,53,44,35,24,19,14,57,39,22,30.49,30.42,30.30,10,10,10,13,10,23,0.00,0,,15
2010-11-12,58,46,34,30,16,7,83,36,13,30.47,30.41,30.33,10,10,10,12,7,,0.00,0,,9
2010-11-13,64,48,33,34,30,27,92,61,31,30.31,30.19,30.12,10,10,10,6,3,,0.00,1,,284
2010-11-14,48,42,36,41,36,29,91,73,61,30.21,30.16,30.12,10,10,10,9,5,,0.00,6,,38
2010-11-15,50,48,45,48,44,41,100,86,73,30.12,30.08,30.05,10,7,0,8,2,,0.00,8,Fog,78
2010-11-16,52,49,46,48,46,45,100,93,79,30.09,30.06,29.99,10,7,0,12,6,,0.00,8,Fog-Rain,170
2010-11-17,60,54,46,56,47,33,100,82,53,29.99,29.56,29.36,10,7,0,26,14,38,1.40,6,Fog-Rain,188
2010-11-18,51,44,38,32,27,24,63,49,36,30.01,29.87,29.62,10,10,10,24,14,33,0.00,5,,280
2010-11-19,43,34,26,26,21,16,77,58,36,30.21,30.13,30.01,10,10,10,14,7,22,0.00,3,,286
2010-11-20,52,40,29,31,23,16,70,53,37,30.27,30.04,29.86,10,10,10,18,8,31,0.00,4,,256
2010-11-21,37,32,27,23,17,12,75,55,37,30.56,30.50,30.28,10,10,10,12,7,,0.00,5,,358
2010-11-22,47,38,28,41,35,23,85,78,71,30.53,30.27,30.06,10,10,8,10,3,,0.00,8,Rain,227
2010-11-23,49,46,42,46,43,34,100,91,59,30.04,29.82,29.67,10,5,0,20,2,26,0.00,7,Fog-Rain,309
2010-11-24,46,38,29,31,13,0,54,36,24,30.06,29.92,29.77,10,10,10,33,18,46,0.00,1,,300
2010-11-25,37,31,25,17,8,3,52,38,28,30.14,30.06,29.91,10,10,10,13,8,,0.00,5,,284
2010-11-26,40,36,28,36,29,17,100,82,51,29.92,29.63,29.44,10,6,0,12,3,,0.32,6,Fog-Rain,309
2010-11-27,41,34,26,28,20,11,81,60,37,29.96,29.67,29.54,10,9,2,26,9,34,0.00,6,Snow,264
2010-11-28,44,34,25,25,18,11,75,54,39,30.39,30.22,29.99,10,10,10,16,11,26,0.00,1,,279
2010-11-29,44,34,25,27,24,22,90,72,45,30.56,30.52,30.40,10,10,10,8,4,,0.00,3,,297
2010-11-30,46,34,23,41,32,21,94,81,67,30.56,30.47,30.34,10,10,8,12,3,,0.00,7,Rain,138